This is the latest recevied weather packets stored in our database for station/object EA1CUE-WX. If no packets are shown the sender has not sent any weather packets the latest 10 day(s).
| Time | Temp. | Humidity | Pressure | Rain* | Wind** | Luminosity | Snow |
|---|---|---|---|---|---|---|---|
| 1778188127 | 8.89° C | 1% | 1011 hPa | 1.52 mm | - | - | - |
| 1778187826 | 9.44° C | 1% | 1010.9 hPa | 1.52 mm | - | - | - |
| 1778187527 | 9.44° C | 1% | 1011 hPa | 1.78 mm | - | - | - |
| 1778187227 | 9.44° C | 1% | 1010.9 hPa | 1.78 mm | - | - | - |
| 1778186927 | 9.44° C | 1% | 1010.9 hPa | 1.78 mm | - | - | - |
| 1778186627 | 9.44° C | 1% | 1011 hPa | 1.52 mm | - | - | - |
| 1778186326 | 9.44° C | 1% | 1010.9 hPa | 1.78 mm | - | - | - |
| 1778186026 | 10° C | 1% | 1011 hPa | 1.52 mm | - | - | - |
| 1778185726 | 9.44° C | 1% | 1011 hPa | 1.27 mm | - | - | - |
| 1778185427 | 9.44° C | 1% | 1010.9 hPa | 1.02 mm | - | - | - |
| 1778185126 | 9.44° C | 1% | 1010.8 hPa | 0.76 mm | - | - | - |
| 1778184826 | 9.44° C | 1% | 1010.7 hPa | 0.76 mm | - | - | - |
| 1778184527 | 9.44° C | 1% | 1010.7 hPa | 0.76 mm | - | - | - |
| 1778184226 | 9.44° C | 1% | 1010.5 hPa | 0.76 mm | - | - | - |
| 1778183926 | 10° C | 1% | 1010.4 hPa | 0.51 mm | - | - | - |
| 1778183626 | 10° C | 1% | 1010.3 hPa | 0.51 mm | - | - | - |
| 1778183327 | 9.44° C | 1% | 1010.3 hPa | 0.51 mm | - | - | - |
| 1778183026 | 10° C | 1% | 1010.2 hPa | 0.51 mm | - | - | - |
| 1778182726 | 10° C | 1% | 1010.1 hPa | 0.25 mm | - | - | - |
| 1778182427 | 10.56° C | 4% | 1010.1 hPa | 0 mm | - | - | - |
| 1778182126 | 11.11° C | 19% | 1010 hPa | 0 mm | - | - | - |
| 1778181527 | 11.67° C | 35% | 1009.9 hPa | 0 mm | - | - | - |
| 1778181226 | 12.22° C | 40% | 1009.8 hPa | 0 mm | - | - | - |
| 1778180926 | 12.78° C | 44% | 1009.8 hPa | 0 mm | - | - | - |
| 1778180626 | 12.78° C | 44% | 1009.7 hPa | 0 mm | - | - | - |
* Rain latest hour (hover to see other rain measurements)
** Current wind speed in m/s (hover to see current wind gust speed)